Hourly Data Report for October 09, 2014

All times are specified in Local Standard Time (LST). Add 1 hour to adjust for Daylight Saving Time where and when it is observed.

QIKIQTARJUAQ A
NUNAVUT

67°32'48.000" N
64°01'54.000" W
5.50 m
2400577
YVM

Download Data

Hourly Data (October 2014)
Hourly Data Report for October 9, 2014
Temp Definition
°C
Dew Point Temp Definition
°C
Rel Hum Definition
%
Wind Dir Definition
10's deg

Wind Spd Definition
km/h
Visibility Definition
km
Stn Press Definition
kPa
Hmdx Definition


Wind Chill Definition


Weather Definition


TIME
00:00 Legend Double Dagger -1.8 -4.5 82 LegendMM 4 16.1 101.79   -3 LegendNANA
01:00 Legend Double Dagger -2.8 -5.1 84 LegendMM 5 16.1 101.76   -5 Snow
02:00 Legend Double Dagger -3.5 -5.5 86 15 5 16.1 101.71   -6 LegendNANA
03:00 Legend Double Dagger -2.7 -4.7 86   0 16.1 101.70     LegendNANA
04:00 Legend Double Dagger -1.9 -3.8 87 33 8 12.9 101.66   -5 Snow
05:00 Legend Double Dagger -2.3 -3.6 91 7 5 16.1 101.62   -4 Snow
06:00 Legend Double Dagger -2.2 -3.2 93 30 5 1.2 101.59   -4 Snow
07:00 Legend Double Dagger -2.6 -3.4 94 20 5 1.6 101.58   -5 Snow
08:00 Legend Double Dagger -2.6 -3.9 91 19 8 16.1 101.54   -6 Snow
09:00 Legend Double Dagger -2.3 -4.0 88 16 4 16.1 101.50   -4 Snow
10:00 Legend Double Dagger -2.3 -3.8 90 6 5 16.1 101.45   -4 LegendNANA
11:00 Legend Double Dagger -2.3 -4.0 88 14 5 4.8 101.43   -4 Snow
12:00 Legend Double Dagger -2.5 -3.5 93   0 1.0 101.42     Moderate Snow
13:00 Legend Double Dagger -2.6 -3.3 95 20 5 3.2 101.40   -5 Snow
14:00 Legend Double Dagger -2.6 -3.3 95   0 2.8 101.40     Snow
15:00 Legend Double Dagger -2.4 -3.1 95 20 4 16.1 101.40   -4 Snow
16:00 Legend Double Dagger -3.0 -4.0 93 LegendMM 4 12.9 101.40   -5 Snow
17:00 Legend Double Dagger -2.9 -3.9 93 14 5 16.1 101.38   -5 Snow
18:00 Legend Double Dagger -2.7 -3.4 95 12 4 6.4 101.36   -4 Snow
19:00 Legend Double Dagger -2.7 -4.0 91 16 4 16.1 101.33   -4 Snow
20:00 Legend Double Dagger -2.9 -4.3 90 15 4 16.1 101.30   -4 LegendNANA
21:00 Legend Double Dagger -2.6 -3.9 91   0 4.8 101.25     Snow
22:00 Legend Double Dagger -2.5 -3.2 95 8 4 3.2 101.20   -4 Snow
23:00 Legend Double Dagger -2.4 -3.1 95   0 2.4 101.13     Snow

Notes on Data Quality.

Legend

  • E = Estimated
  • M = Missing
  • NA = Not Available
  • ‡ = Partner data that is not subject to review by the National Climate Archives
Date modified: